Flag for Australia Weather past 2 weeks in Darwin, Northern Territory, Australia

90 °F


Feels Like: 92 °F
Forecast: 78 / 89 °F
Wind: 8 mph from West

Location: Darwin Airport

Current Time: Oct 14, 2015 at 1:31:50 PM

Latest Report: Oct 14, 2015 at 12:30 PM

Visibility: 10 mi

Pressure: 29.95 "Hg

Humidity: 46%

Dew point: 66 °F

Location of DarwinLocation

Historic Weather in Darwin — Graph


Darwin temperature yesterday

Maximum temperature yesterday: 90 °F (at 12:30 PM)
Minimum temperature yesterday: 75 °F (at 6:00 AM)
Average temperature yesterday: 83 °F

Past Weeks' High & Low Weather Summary

High95 °F (Oct 1, 1:22 PM)94% (Oct 5, 9:30 PM)30.09 "Hg (Oct 5, 9:30 PM)
Low72 °F (Oct 5, 9:30 PM)18% (Oct 1, 1:22 PM)29.86 "Hg (Sep 29, 4:00 PM)
Average82 °F64%29.97 "Hg
* Reported Sep 29 11:30 AM — Oct 14 11:30 AM, Darwin, Weather by CustomWeather, © 2015

Note: Actual official high and low records may vary slightly from our data, if they occured in-between our weather recording intervals... More about our weather records


Darwin weather history for previous 24 hours

Time TempWeatherWind HumidityBarometerVisibility
11:30 AM
Wed, Oct 14
90 °FPassing clouds.10 mph49%29.98 "HgN/A
10:30 AM88 °FPassing clouds.6 mph49%30.01 "HgN/A
10:00 AM86 °FPassing clouds.6 mph55%30.01 "HgN/A
9:30 AM84 °FPassing clouds.8 mph62%30.01 "HgN/A
9:00 AM84 °FPassing clouds.2 mph58%30.01 "HgN/A
8:30 AM82 °FPassing clouds.3 mph66%30.01 "HgN/A
7:00 AM77 °FPassing clouds.5 mph83%29.95 "HgN/A
6:30 AM75 °FPassing clouds.5 mph89%29.95 "HgN/A
5:30 AM75 °FClear.6 mph89%29.92 "Hg10 mi
5:00 AM75 °FClear.6 mph89%29.92 "Hg10 mi
4:30 AM75 °FClear.5 mph89%29.92 "Hg10 mi
4:00 AM75 °FClear.5 mph89%29.92 "Hg10 mi
3:30 AM77 °FClear.6 mph83%29.92 "Hg10 mi
3:00 AM77 °FClear.5 mph89%29.92 "Hg10 mi
2:30 AM79 °FClear.8 mph79%29.92 "Hg10 mi
2:00 AM79 °FClear.7 mph79%29.95 "Hg10 mi
1:30 AM79 °FClear.6 mph79%29.95 "Hg10 mi
1:00 AM81 °FClear.7 mph74%29.95 "Hg10 mi
12:30 AM81 °FPassing clouds.8 mph74%29.98 "HgN/A
12:00 AM81 °FPassing clouds.9 mph74%29.98 "HgN/A
11:30 PM
Tue, Oct 13
81 °FPassing clouds.9 mph74%29.98 "HgN/A
11:00 PM82 °FSprinkles. Passing clouds.12 mph70%29.98 "HgN/A
10:30 PM82 °FScattered showers. Passing clouds.6 mph70%29.98 "HgN/A
10:00 PM82 °FScattered showers. Passing clouds.10 mph66%29.98 "HgN/A
9:30 PM82 °FClear.13 mph66%29.95 "Hg10 mi
9:00 PM82 °FClear.13 mph66%29.95 "Hg10 mi
8:30 PM84 °FPassing clouds.14 mph62%29.95 "HgN/A
8:00 PM84 °FPassing clouds.15 mph58%29.92 "HgN/A
7:30 PM84 °FPassing clouds.16 mph62%29.92 "HgN/A
7:26 PM84 °FPassing clouds.17 mph66%29.92 "HgN/A
6:30 PM86 °FSunny.7 mph55%29.89 "Hg10 mi
6:00 PM86 °FSunny.9 mph55%29.86 "Hg10 mi
5:30 PM88 °FSunny.12 mph49%29.86 "Hg10 mi
5:00 PM90 °FSunny.14 mph43%29.86 "Hg10 mi
4:30 PM90 °FSunny.15 mph43%29.86 "Hg10 mi
4:00 PM90 °FSunny.13 mph43%29.86 "Hg10 mi
3:30 PM90 °FPassing clouds.13 mph46%29.86 "HgN/A
3:00 PM90 °FPassing clouds.15 mph43%29.89 "HgN/A
2:30 PM90 °FPassing clouds.13 mph49%29.89 "HgN/A
1:30 PM90 °FPassing clouds.15 mph46%29.92 "HgN/A
Weather by CustomWeather, © 2015

See weather overviewHow to use our weather pages